This demonstration page uses our WeatherBlox Daily Observations layout. Learn more.

Left ArrowRight Arrow

Hourly Observations for May 21, 2015

Temp ( °F °C ) Dew Point ( °F °C ) Humidity (%) Winds ( mph kmh ) Pressure ( in mb ) Visibility ( mi km ) Precip ( " mm )
12:53 am 00:53 Cloudy with Light Rain 62 16.7 57 13.9 84 84 E 6 9 29.86 1011 10 16 0.00 0.03
1:53 am 01:53 Cloudy 61 16.1 57 13.9 87 87 WNW 5 7 29.87 1011 10 16 0.00 0.03
2:53 am 02:53 Cloudy 61 16.1 57 13.9 87 87 NNW 5 7 29.86 1011 10 16 0.00 0.00
3:53 am 03:53 Cloudy 62 16.7 58 14.4 86 86 Calm 29.86 1011 10 16 0.00 0.00
4:53 am 04:53 Cloudy 61 16.1 57 13.9 87 87 SSE 3 6 29.87 1012 10 16 0.00 0.00
5:53 am 05:53 Cloudy 60 15.6 58 14.4 93 93 SE 5 7 29.88 1012 9 14 0.01 0.25
6:03 am 06:03 Cloudy 61 16 57 14 88 88 SSE 5 7 29.88 1012 8 13 0.00 0.00
6:32 am 06:32 Cloudy 59 15 55 13 88 88 S 6 9 29.88 1012 10 16 0.00 0.00
6:53 am 06:53 Cloudy 59 15 54 12.2 83 83 SSW 6 9 29.89 1012 10 16 0.00 0.00
7:53 am 07:53 Cloudy 60 15.6 54 12.2 80 80 SE 5 7 29.89 1012 10 16 0.00 0.00
8:53 am 08:53 Mostly Cloudy 61 16.1 55 12.8 81 81 SSE 3 6 29.89 1012 10 16 0.00 0.00
9:53 am 09:53 Partly Cloudy 66 18.9 56 13.3 70 70 Calm 29.88 1012 10 16 0.00 0.00
10:53 am 10:53 Partly Cloudy 70 21.1 56 13.3 61 61 Calm 29.86 1011 10 16 0.00 0.00
11:53 am 11:53 Sunny 72 22.2 54 12.2 53 53 Calm 29.85 1011 10 16 0.00 0.00
12:05 pm 12:05 Hazy 74 23.3 54 12.2 50 50 N 3 6 29.85 1011 3 4 0.00 0.00
12:14 pm 12:14 Sunny 73 23 55 13 53 53 VRB 3 6 29.85 1011 10 16 0.00 0.00
12:53 pm 12:53 Sunny 75 23.9 48 8.9 39 39 Calm 29.82 1010 10 16 0.00 0.00
1:53 pm 13:53 Sunny 78 25.6 49 9.4 36 36 Calm 29.80 1009 10 16 0.00 0.00
2:53 pm 14:53 Partly Cloudy 79 26.1 48 8.9 34 34 VRB 5 7 29.78 1009 10 16 0.00 0.00
3:53 pm 15:53 Partly Cloudy 80 26.7 42 5.6 26 26 SW 10 17 29.76 1008 10 16 0.00 0.00
4:53 pm 16:53 Sunny 81 27.2 43 6.1 26 26 SSE 10 17 29.75 1007 10 16 0.00 0.00
5:53 pm 17:53 Sunny 81 27.2 48 8.9 32 32 S 17 28 29.75 1008 10 16 0.00 0.00
6:53 pm 18:53 Sunny 78 25.6 49 9.4 36 36 S 17 28 29.77 1008 10 16 0.00 0.00
7:53 pm 19:53 Sunny 75 23.9 48 8.9 39 39 S 15 24 29.79 1009 10 16 0.00 0.00
8:53 pm 20:53 Cloudy 72 22.2 53 11.7 52 52 SSE 12 19 29.82 1010 10 16 0.00 0.00
9:53 pm 21:53 Clear 71 21.7 52 11.1 51 51 SSW 9 15 29.85 1011 10 16 0.00 0.00
10:53 pm 22:53 Cloudy 70 21.1 51 10.6 51 51 SSW 9 15 29.87 1012 10 16 0.00 0.00
11:53 pm 23:53 Cloudy 69 20.6 51 10.6 53 53 SSW 7 11 29.88 1012 10 16 0.00 0.00

Powered by AerisWeather